Hourly Weather Logvinovo

Today, 12 July, Sunday

Time Temperature Precipitation Wind Pressure Humidity
00:00 +17°C° 0 mm 3 mps 741 mmHg 92%
01:00 +17°C° 0 mm 3 mps 741 mmHg 92%
02:00 +17°C° 0 mm 2 mps 740 mmHg 92%
03:00 +17°C° 0 mm 2 mps 740 mmHg 91%
04:00 +17°C° 0 mm 2 mps 740 mmHg 90%
05:00 +18°C° 0 mm 2 mps 740 mmHg 89%
06:00 +19°C° 0 mm 2 mps 740 mmHg 85%
07:00 +21°C° 0 mm 3 mps 740 mmHg 81%
08:00 +22°C° 0 mm 3 mps 740 mmHg 77%
09:00 +24°C° 0 mm 3 mps 740 mmHg 74%
10:00 +25°C° 0 mm 3 mps 740 mmHg 70%
11:00 +26°C° 0 mm 3 mps 739 mmHg 67%
12:00 +26°C° 0 mm 3 mps 739 mmHg 66%
13:00 +27°C° 0 mm 3 mps 739 mmHg 65%
14:00 +27°C° 0 mm 3 mps 739 mmHg 64%
15:00 +27°C° 0 mm 2 mps 739 mmHg 66%
16:00 +27°C° 0 mm 2 mps 738 mmHg 68%
17:00 +27°C° 0 mm 2 mps 738 mmHg 71%
18:00 +25°C° 0 mm 2 mps 738 mmHg 74%
19:00 +23°C° 0 mm 1 mps 738 mmHg 78%
20:00 +21°C° 0 mm 1 mps 738 mmHg 81%
21:00 +21°C° 0 mm 1 mps 737 mmHg 82%
22:00 +20°C° 0 mm 1 mps 737 mmHg 83%
23:00 +19°C° 0 mm 1 mps 737 mmHg 83%

Tomorrow, 13 July, Monday

Time Temperature Precipitation Wind Pressure Humidity
00:00 +19°C° 0 mm 1 mps 737 mmHg 85%
01:00 +18°C° 0 mm 1 mps 737 mmHg 86%
02:00 +18°C° 0 mm 1 mps 737 mmHg 87%
03:00 +18°C° 0 mm 1 mps 736 mmHg 88%
04:00 +18°C° 0 mm 1 mps 736 mmHg 89%
05:00 +17°C° 0 mm 2 mps 736 mmHg 90%
06:00 +18°C° 0 mm 2 mps 736 mmHg 88%
07:00 +19°C° 0 mm 2 mps 736 mmHg 86%
08:00 +20°C° 0 mm 3 mps 736 mmHg 84%
09:00 +21°C° 0.1 mm 3 mps 736 mmHg 81%
10:00 +23°C° 0.1 mm 2 mps 735 mmHg 78%
11:00 +24°C° 0.1 mm 2 mps 735 mmHg 75%
12:00 +24°C° 1.4 mm 2 mps 735 mmHg 75%
13:00 +24°C° 1.4 mm 2 mps 735 mmHg 76%
14:00 +24°C° 1.4 mm 2 mps 735 mmHg 76%
15:00 +24°C° 1.4 mm 2 mps 735 mmHg 80%
16:00 +23°C° 1.4 mm 2 mps 734 mmHg 84%
17:00 +21°C° 1.4 mm 2 mps 734 mmHg 88%
18:00 +20°C° 0.7 mm 3 mps 734 mmHg 90%
19:00 +19°C° 0.7 mm 3 mps 734 mmHg 92%
20:00 +18°C° 0.7 mm 3 mps 734 mmHg 94%
21:00 +18°C° 0.6 mm 4 mps 734 mmHg 95%
22:00 +16°C° 0.6 mm 5 mps 734 mmHg 95%
23:00 +16°C° 0.6 mm 5 mps 733 mmHg 96%

Day after tomorrow, 14 July, Tuesday

Time Temperature Precipitation Wind Pressure Humidity
00:00 +16°C° 0.3 mm 5 mps 733 mmHg 96%
01:00 +17°C° 0.3 mm 4 mps 733 mmHg 96%
02:00 +17°C° 0.3 mm 4 mps 733 mmHg 97%
03:00 +17°C° 0.9 mm 4 mps 732 mmHg 97%
04:00 +17°C° 0.9 mm 4 mps 732 mmHg 97%
05:00 +17°C° 0.9 mm 4 mps 731 mmHg 97%
06:00 +17°C° 1 mm 4 mps 731 mmHg 97%
07:00 +17°C° 1 mm 4 mps 732 mmHg 97%
08:00 +18°C° 1 mm 4 mps 732 mmHg 97%
09:00 +18°C° 0.8 mm 4 mps 732 mmHg 97%
10:00 +18°C° 0.8 mm 4 mps 732 mmHg 97%
11:00 +18°C° 0.8 mm 4 mps 732 mmHg 97%
12:00 +18°C° 0.7 mm 4 mps 731 mmHg 96%
13:00 +19°C° 0.7 mm 4 mps 731 mmHg 95%
14:00 +19°C° 0.7 mm 4 mps 731 mmHg 94%
15:00 +19°C° 1.9 mm 4 mps 731 mmHg 95%
16:00 +19°C° 1.9 mm 4 mps 730 mmHg 96%
17:00 +17°C° 1.9 mm 5 mps 730 mmHg 96%
18:00 +18°C° 1.2 mm 4 mps 729 mmHg 97%
19:00 +18°C° 1.2 mm 3 mps 729 mmHg 97%
20:00 +18°C° 1.2 mm 3 mps 729 mmHg 97%
21:00 +18°C° 0.4 mm 3 mps 728 mmHg 97%
22:00 +17°C° 0.4 mm 3 mps 728 mmHg 97%
23:00 +17°C° 0.4 mm 3 mps 728 mmHg 97%

15 July, Wednesday

Time Temperature Precipitation Wind Pressure Humidity
00:00 +17°C° 0 mm 2 mps 728 mmHg 97%
01:00 +16°C° 0 mm 2 mps 728 mmHg 97%
02:00 +16°C° 0 mm 2 mps 727 mmHg 97%
03:00 +16°C° 0.1 mm 2 mps 727 mmHg 97%
04:00 +16°C° 0.1 mm 2 mps 727 mmHg 97%
05:00 +16°C° 0.1 mm 2 mps 727 mmHg 97%
06:00 +16°C° 0.3 mm 2 mps 727 mmHg 97%
07:00 +17°C° 0.3 mm 2 mps 727 mmHg 96%
08:00 +17°C° 0.3 mm 2 mps 727 mmHg 96%
09:00 +17°C° 1 mm 2 mps 728 mmHg 94%
10:00 +18°C° 1 mm 3 mps 728 mmHg 92%
11:00 +18°C° 1 mm 3 mps 728 mmHg 91%
12:00 +18°C° 0.6 mm 4 mps 728 mmHg 91%
13:00 +18°C° 0.6 mm 4 mps 728 mmHg 91%
14:00 +17°C° 0.6 mm 4 mps 728 mmHg 91%
15:00 +17°C° 0.3 mm 4 mps 728 mmHg 92%
16:00 +15°C° 0.3 mm 5 mps 728 mmHg 92%
17:00 +15°C° 0.3 mm 5 mps 729 mmHg 93%
18:00 +15°C° 0.1 mm 5 mps 729 mmHg 94%
19:00 +14°C° 0.1 mm 5 mps 729 mmHg 95%
20:00 +14°C° 0.1 mm 5 mps 729 mmHg 95%
21:00 +14°C° 0.1 mm 5 mps 729 mmHg 95%
22:00 +14°C° 0.1 mm 5 mps 729 mmHg 95%
23:00 +14°C° 0.1 mm 5 mps 729 mmHg 95%

16 July, Thursday

Time Temperature Precipitation Wind Pressure Humidity
00:00 +14°C° 0 mm 6 mps 730 mmHg 94%
01:00 +13°C° 0 mm 6 mps 730 mmHg 94%
02:00 +13°C° 0 mm 6 mps 730 mmHg 94%
03:00 +13°C° 0.1 mm 6 mps 730 mmHg 94%
04:00 +13°C° 0.1 mm 6 mps 730 mmHg 95%
05:00 +11°C° 0.1 mm 6 mps 730 mmHg 95%
06:00 +11°C° 0.1 mm 6 mps 731 mmHg 94%
07:00 +13°C° 0.1 mm 6 mps 731 mmHg 94%
08:00 +13°C° 0.1 mm 6 mps 731 mmHg 94%
09:00 +13°C° 0 mm 5 mps 732 mmHg 92%
10:00 +13°C° 0 mm 5 mps 732 mmHg 91%
11:00 +14°C° 0 mm 5 mps 732 mmHg 90%
12:00 +14°C° 0 mm 5 mps 732 mmHg 90%
13:00 +14°C° 0 mm 5 mps 733 mmHg 89%
14:00 +14°C° 0 mm 5 mps 733 mmHg 88%
15:00 +15°C° 0 mm 5 mps 733 mmHg 88%
16:00 +15°C° 0 mm 5 mps 733 mmHg 87%
17:00 +15°C° 0 mm 4 mps 733 mmHg 87%
18:00 +14°C° 0 mm 4 mps 733 mmHg 87%
19:00 +14°C° 0 mm 4 mps 733 mmHg 88%
20:00 +13°C° 0 mm 4 mps 733 mmHg 89%
21:00 +13°C° 0 mm 4 mps 733 mmHg 90%
22:00 +13°C° 0 mm 4 mps 733 mmHg 91%
23:00 +13°C° 0 mm 5 mps 733 mmHg 93%

17 July, Friday

Time Temperature Precipitation Wind Pressure Humidity
00:00 +13°C° 0 mm 5 mps 733 mmHg 93%
01:00 +13°C° 0 mm 5 mps 733 mmHg 93%
02:00 +13°C° 0 mm 5 mps 733 mmHg 93%
03:00 +13°C° 0 mm 5 mps 733 mmHg 93%
04:00 +13°C° 0 mm 4 mps 733 mmHg 93%
05:00 +13°C° 0 mm 4 mps 733 mmHg 93%
06:00 +13°C° 0 mm 4 mps 733 mmHg 92%
07:00 +14°C° 0 mm 4 mps 733 mmHg 91%
08:00 +14°C° 0 mm 5 mps 734 mmHg 90%
09:00 +14°C° 0 mm 5 mps 734 mmHg 89%
10:00 +15°C° 0 mm 5 mps 734 mmHg 87%
11:00 +16°C° 0 mm 5 mps 734 mmHg 86%
12:00 +17°C° 0.1 mm 4 mps 734 mmHg 84%
13:00 +18°C° 0.1 mm 4 mps 734 mmHg 82%
14:00 +19°C° 0.1 mm 4 mps 735 mmHg 80%
15:00 +19°C° 0.1 mm 4 mps 735 mmHg 80%
16:00 +19°C° 0.1 mm 3 mps 735 mmHg 80%
17:00 +19°C° 0.1 mm 3 mps 735 mmHg 80%
18:00 +18°C° 0 mm 2 mps 735 mmHg 83%
19:00 +17°C° 0 mm 2 mps 735 mmHg 86%
20:00 +16°C° 0 mm 1 mps 735 mmHg 90%
21:00 +15°C° 0 mm 1 mps 735 mmHg 90%
22:00 +15°C° 0 mm 1 mps 735 mmHg 91%
23:00 +14°C° 0 mm 1 mps 736 mmHg 92%
Show more